• In Latvia
  • List of Countries
  • For 7 days
  • Water Temperature
  • Satellite Maps
  • Weather Map
  • Weather Widgets
  • user-avatar
    Login

    Hourly Weather Lubango

    Today, 6 December, Tuesday

    Time Temperature Precipitation Wind Pressure Humidity
    00:00 +16°C° 0.4 mm 1 mps 609 mmHg 92%
    01:00 +16°C° 0 mm 1 mps 609 mmHg 93%
    02:00 +15°C° 0.9 mm 1 mps 608 mmHg 93%
    03:00 +14°C° 0.9 mm 0 mps 608 mmHg 94%
    04:00 +14°C° 0.9 mm 0 mps 608 mmHg 94%
    05:00 +15°C° 0.8 mm 0 mps 608 mmHg 92%
    06:00 +15°C° 0.8 mm 0 mps 609 mmHg 89%
    07:00 +16°C° 0 mm 0 mps 610 mmHg 85%
    08:00 +20°C° 1 mm 1 mps 610 mmHg 79%
    09:00 +21°C° 1 mm 1 mps 611 mmHg 73%
    10:00 +23°C° 1 mm 1 mps 611 mmHg 66%
    11:00 +24°C° 0.7 mm 1 mps 611 mmHg 62%
    12:00 +24°C° 0.7 mm 1 mps 611 mmHg 59%
    13:00 +25°C° 0 mm 1 mps 611 mmHg 56%
    14:00 +24°C° 2 mm 1 mps 610 mmHg 62%
    15:00 +23°C° 2 mm 1 mps 610 mmHg 67%
    16:00 +21°C° 2 mm 2 mps 609 mmHg 72%
    17:00 +21°C° 0.6 mm 1 mps 609 mmHg 77%
    18:00 +20°C° 0.6 mm 1 mps 609 mmHg 81%
    19:00 +19°C° 0.6 mm 1 mps 609 mmHg 86%
    20:00 +18°C° 0.3 mm 1 mps 609 mmHg 88%
    21:00 +18°C° 0.3 mm 1 mps 609 mmHg 90%
    22:00 +16°C° 0.3 mm 2 mps 610 mmHg 92%
    23:00 +16°C° 0.1 mm 1 mps 609 mmHg 92%

    Tomorrow, 7 December, Wednesday

    Time Temperature Precipitation Wind Pressure Humidity
    00:00 +16°C° 0.1 mm 1 mps 609 mmHg 93%
    01:00 +16°C° 0.1 mm 1 mps 609 mmHg 93%
    02:00 +16°C° 0.5 mm 1 mps 609 mmHg 94%
    03:00 +14°C° 0.5 mm 0 mps 609 mmHg 94%
    04:00 +14°C° 0.5 mm 0 mps 609 mmHg 95%
    05:00 +14°C° 1.3 mm 0 mps 609 mmHg 93%
    06:00 +15°C° 1.3 mm 0 mps 609 mmHg 91%
    07:00 +15°C° 1.3 mm 0 mps 609 mmHg 90%
    08:00 +16°C° 0.7 mm 0 mps 610 mmHg 84%
    09:00 +17°C° 0.7 mm 0 mps 610 mmHg 79%
    10:00 +20°C° 0.7 mm 1 mps 611 mmHg 74%
    11:00 +22°C° 0.1 mm 1 mps 611 mmHg 67%
    12:00 +23°C° 0.1 mm 1 mps 611 mmHg 60%
    13:00 +25°C° 0.1 mm 1 mps 611 mmHg 54%
    14:00 +24°C° 0.5 mm 1 mps 610 mmHg 54%
    15:00 +24°C° 0.5 mm 2 mps 610 mmHg 55%
    16:00 +24°C° 0.5 mm 2 mps 609 mmHg 55%
    17:00 +21°C° 0.6 mm 2 mps 609 mmHg 63%
    18:00 +20°C° 0.6 mm 2 mps 609 mmHg 71%
    19:00 +19°C° 0.6 mm 1 mps 608 mmHg 80%
    20:00 +18°C° 0.4 mm 1 mps 608 mmHg 82%
    21:00 +18°C° 0.4 mm 1 mps 609 mmHg 84%
    22:00 +16°C° 0.4 mm 1 mps 609 mmHg 87%
    23:00 +16°C° 0.6 mm 1 mps 609 mmHg 88%

    Day after tomorrow, 8 December, Thursday

    Time Temperature Precipitation Wind Pressure Humidity
    00:00 +16°C° 0.6 mm 1 mps 608 mmHg 89%
    01:00 +15°C° 0.6 mm 1 mps 608 mmHg 90%
    02:00 +14°C° 0.6 mm 0 mps 608 mmHg 90%
    03:00 +14°C° 0.6 mm 0 mps 608 mmHg 91%
    04:00 +13°C° 0.6 mm 0 mps 608 mmHg 92%
    05:00 +14°C° 0.4 mm 0 mps 608 mmHg 88%
    06:00 +15°C° 0.4 mm 0 mps 609 mmHg 85%
    07:00 +16°C° 0.4 mm 0 mps 610 mmHg 81%
    08:00 +20°C° 0.2 mm 1 mps 611 mmHg 73%
    09:00 +22°C° 0.2 mm 1 mps 611 mmHg 66%
    10:00 +24°C° 0.2 mm 1 mps 612 mmHg 58%
    11:00 +25°C° 0.7 mm 1 mps 612 mmHg 55%
    12:00 +25°C° 0.7 mm 1 mps 611 mmHg 53%
    13:00 +26°C° 0.7 mm 1 mps 611 mmHg 50%
    14:00 +25°C° 1.4 mm 2 mps 610 mmHg 55%
    15:00 +24°C° 1.4 mm 2 mps 610 mmHg 59%
    16:00 +23°C° 1.4 mm 2 mps 609 mmHg 64%
    17:00 +21°C° 0.6 mm 2 mps 609 mmHg 70%
    18:00 +19°C° 0.6 mm 2 mps 609 mmHg 76%
    19:00 +19°C° 0.6 mm 1 mps 609 mmHg 82%
    20:00 +18°C° 0.2 mm 1 mps 609 mmHg 84%
    21:00 +18°C° 0.2 mm 1 mps 609 mmHg 86%
    22:00 +16°C° 0.2 mm 1 mps 609 mmHg 88%
    23:00 +16°C° 0.3 mm 1 mps 609 mmHg 88%

    9 December, Friday

    Time Temperature Precipitation Wind Pressure Humidity
    00:00 +16°C° 0.3 mm 1 mps 609 mmHg 89%
    01:00 +15°C° 0.3 mm 1 mps 608 mmHg 90%
    02:00 +15°C° 0.2 mm 1 mps 608 mmHg 90%
    03:00 +15°C° 0.2 mm 1 mps 608 mmHg 90%
    04:00 +13°C° 0.2 mm 0 mps 608 mmHg 90%
    05:00 +14°C° 0.4 mm 0 mps 608 mmHg 88%
    06:00 +15°C° 0.4 mm 0 mps 609 mmHg 85%
    07:00 +16°C° 0.4 mm 0 mps 610 mmHg 82%
    08:00 +18°C° 0.3 mm 0 mps 610 mmHg 74%
    09:00 +21°C° 0.3 mm 1 mps 611 mmHg 66%
    10:00 +23°C° 0.3 mm 1 mps 612 mmHg 59%
    11:00 +24°C° 0.7 mm 1 mps 612 mmHg 56%
    12:00 +25°C° 0.7 mm 1 mps 611 mmHg 54%
    13:00 +26°C° 0.7 mm 1 mps 611 mmHg 52%
    14:00 +25°C° 0.6 mm 2 mps 610 mmHg 55%
    15:00 +24°C° 0.6 mm 2 mps 610 mmHg 59%
    16:00 +23°C° 0.6 mm 2 mps 609 mmHg 62%
    17:00 +21°C° 0.7 mm 2 mps 609 mmHg 69%
    18:00 +19°C° 0.7 mm 2 mps 609 mmHg 75%
    19:00 +18°C° 0.7 mm 2 mps 609 mmHg 82%
    20:00 +18°C° 1 mm 1 mps 609 mmHg 84%
    21:00 +16°C° 1 mm 1 mps 609 mmHg 87%
    22:00 +16°C° 1 mm 1 mps 609 mmHg 89%
    23:00 +15°C° 0.7 mm 1 mps 609 mmHg 90%

    10 December, Saturday

    Time Temperature Precipitation Wind Pressure Humidity
    00:00 +15°C° 0.7 mm 1 mps 609 mmHg 91%
    01:00 +15°C° 0.7 mm 1 mps 608 mmHg 92%
    02:00 +15°C° 0.1 mm 1 mps 608 mmHg 93%
    03:00 +15°C° 0.1 mm 1 mps 608 mmHg 93%
    04:00 +14°C° 0.1 mm 1 mps 608 mmHg 93%
    05:00 +15°C° 0.3 mm 1 mps 608 mmHg 91%
    06:00 +15°C° 0.3 mm 1 mps 609 mmHg 88%
    07:00 +16°C° 0.3 mm 1 mps 609 mmHg 86%
    08:00 +19°C° 0.5 mm 1 mps 610 mmHg 77%
    09:00 +21°C° 0.5 mm 1 mps 611 mmHg 69%
    10:00 +23°C° 0.5 mm 1 mps 611 mmHg 60%
    11:00 +24°C° 0.8 mm 1 mps 611 mmHg 57%
    12:00 +24°C° 0.8 mm 2 mps 611 mmHg 55%
    13:00 +25°C° 0.8 mm 2 mps 610 mmHg 52%
    14:00 +25°C° 0.6 mm 2 mps 610 mmHg 55%
    15:00 +24°C° 0.6 mm 2 mps 609 mmHg 57%
    16:00 +22°C° 0.6 mm 3 mps 609 mmHg 60%
    17:00 +21°C° 0.3 mm 2 mps 608 mmHg 67%
    18:00 +19°C° 0.3 mm 2 mps 608 mmHg 74%
    19:00 +17°C° 0.3 mm 2 mps 608 mmHg 81%
    20:00 +17°C° 0.9 mm 2 mps 608 mmHg 84%
    21:00 +16°C° 0.9 mm 1 mps 608 mmHg 87%
    22:00 +16°C° 0.9 mm 1 mps 608 mmHg 90%
    23:00 +15°C° 0.2 mm 1 mps 608 mmHg 90%

    11 December, Sunday

    Time Temperature Precipitation Wind Pressure Humidity
    00:00 +15°C° 0.2 mm 1 mps 608 mmHg 91%
    01:00 +15°C° 0.2 mm 1 mps 608 mmHg 92%
    02:00 +14°C° 0.8 mm 0 mps 607 mmHg 92%
    03:00 +13°C° 0.8 mm 0 mps 607 mmHg 93%
    04:00 +13°C° 0.8 mm 0 mps 607 mmHg 93%
    05:00 +14°C° 0 mm 0 mps 607 mmHg 90%
    06:00 +15°C° 0 mm 0 mps 608 mmHg 86%
    07:00 +15°C° 0 mm 0 mps 609 mmHg 83%
    08:00 +19°C° 0.5 mm 1 mps 609 mmHg 74%
    09:00 +21°C° 0.5 mm 1 mps 610 mmHg 66%
    10:00 +23°C° 0.5 mm 1 mps 611 mmHg 58%
    11:00 +24°C° 0.8 mm 1 mps 610 mmHg 57%
    12:00 +24°C° 0.8 mm 2 mps 610 mmHg 55%
    13:00 +25°C° 0.8 mm 2 mps 610 mmHg 54%
    14:00 +24°C° 0.9 mm 2 mps 609 mmHg 58%
    15:00 +23°C° 0.9 mm 2 mps 609 mmHg 63%
    16:00 +21°C° 0.9 mm 2 mps 608 mmHg 67%
    17:00 +20°C° 0.9 mm 2 mps 608 mmHg 73%
    18:00 +18°C° 0.9 mm 2 mps 608 mmHg 80%
    19:00 +18°C° 0.9 mm 1 mps 608 mmHg 87%
    20:00 +18°C° 0.9 mm 1 mps 608 mmHg 88%
    21:00 +16°C° 0.9 mm 1 mps 609 mmHg 90%
    22:00 +16°C° 0.9 mm 1 mps 609 mmHg 92%
    23:00 +16°C° 0.8 mm 1 mps 608 mmHg 93%
    Show more